EWG10L LGKO-EDDK

Flight info

Callsign EWG10L
Flight time 3h 5m
Altitude 36000
Route LARKI UL609 MES UG18 FSK UL608 DISOR DCT LONTA UL608 DOLEV DCT LURID DCT ZAG DCT BEDOX DCT SIMBA DCT KEMES DCT OSBIT DCT SOGMI DCT GULKO GULKO1K
Aircraft A320/M-SDE3FGHIRWY/LB1

Departure

Time 2026-04-26 12:58
Airport Kos International Airport "Ippokratis" (LGKO)

Arrival

Time 2026-04-26 16:03
Airport Cologne Bonn Airport (EDDK)
Time Latitude Longitude Altitude Speed Heading
2026-04-26 12:16 36.79970 27.09052 445 ft 0 kts 58°
2026-04-26 12:48 36.79967 27.09046 435 ft 4 kts 59°
2026-04-26 12:48 36.79954 27.09016 428 ft 4 kts 70°
2026-04-26 12:48 36.79949 27.08985 431 ft 4 kts 102°
2026-04-26 12:49 36.79956 27.08966 433 ft 0 kts 148°
2026-04-26 12:51 36.79946 27.08974 431 ft 3 kts 149°
2026-04-26 12:52 36.79907 27.08984 432 ft 9 kts 175°
2026-04-26 12:52 36.79826 27.08988 434 ft 14 kts 179°
2026-04-26 12:52 36.79730 27.08990 439 ft 14 kts 178°
2026-04-26 12:52 36.79636 27.08997 433 ft 14 kts 173°
2026-04-26 12:53 36.79519 27.09068 431 ft 24 kts 148°
2026-04-26 12:53 36.79377 27.09179 433 ft 25 kts 147°
2026-04-26 12:53 36.79230 27.09297 434 ft 26 kts 147°
2026-04-26 12:53 36.79077 27.09421 439 ft 24 kts 149°
2026-04-26 12:54 36.78932 27.09529 438 ft 23 kts 149°
2026-04-26 12:54 36.78794 27.09634 437 ft 24 kts 147°
2026-04-26 12:54 36.78653 27.09743 438 ft 23 kts 148°
2026-04-26 12:54 36.78601 27.09799 444 ft 7 kts 101°
2026-04-26 12:55 36.78583 27.09848 440 ft 6 kts 152°
2026-04-26 12:55 36.78562 27.09820 435 ft 5 kts 287°
2026-04-26 12:55 36.78578 27.09800 434 ft 2 kts 326°
2026-04-26 12:55 36.78580 27.09799 443 ft 0 kts 327°
2026-04-26 12:57 36.78648 27.09745 437 ft 40 kts 328°
2026-04-26 12:57 36.79105 27.09392 433 ft 110 kts 328°
2026-04-26 12:58 36.80859 27.08036 1058 ft 161 kts 329°
2026-04-26 12:58 36.81624 27.06989 1703 ft 173 kts 292°
2026-04-26 12:58 36.81802 27.05407 2088 ft 195 kts 274°
2026-04-26 12:58 36.81971 27.03652 2479 ft 212 kts 289°
2026-04-26 12:59 36.82693 27.02003 2911 ft 226 kts 305°
2026-04-26 12:59 36.83596 27.00274 3324 ft 248 kts 304°
2026-04-26 12:59 36.84559 26.98387 3881 ft 265 kts 304°
2026-04-26 12:59 36.85559 26.96436 4763 ft 268 kts 304°
2026-04-26 13:00 36.86573 26.94460 5624 ft 272 kts 304°
2026-04-26 13:00 36.87600 26.92453 6485 ft 276 kts 304°
2026-04-26 13:00 36.88801 26.90577 7267 ft 278 kts 322°
2026-04-26 13:00 36.90474 26.89384 8035 ft 280 kts 340°
2026-04-26 13:01 36.92309 26.88516 8847 ft 284 kts 342°
2026-04-26 13:01 36.94178 26.87654 9622 ft 289 kts 341°
2026-04-26 13:01 36.96086 26.86782 10263 ft 298 kts 342°
2026-04-26 13:01 36.98098 26.85865 10640 ft 317 kts 342°
2026-04-26 13:02 37.00226 26.84892 11018 ft 333 kts 342°
2026-04-26 13:02 37.02436 26.83875 11584 ft 341 kts 341°
2026-04-26 13:02 37.04644 26.82853 12323 ft 345 kts 342°
2026-04-26 13:02 37.06900 26.81804 13087 ft 347 kts 341°
2026-04-26 13:03 37.09174 26.80743 13828 ft 350 kts 341°
2026-04-26 13:03 37.11461 26.79672 14528 ft 351 kts 341°
2026-04-26 13:03 37.13760 26.78597 15154 ft 354 kts 341°
2026-04-26 13:03 37.16075 26.77517 15812 ft 357 kts 341°
2026-04-26 13:04 37.18411 26.76427 16462 ft 359 kts 341°
2026-04-26 13:04 37.20758 26.75329 17126 ft 361 kts 341°
2026-04-26 13:04 37.23123 26.74220 17768 ft 364 kts 341°
2026-04-26 13:04 37.25504 26.73105 18383 ft 367 kts 341°
2026-04-26 13:05 37.27902 26.71983 18922 ft 369 kts 341°
2026-04-26 13:05 37.30322 26.70851 19473 ft 372 kts 341°
2026-04-26 13:05 37.32753 26.69714 20012 ft 374 kts 341°
2026-04-26 13:05 37.35205 26.68566 20553 ft 377 kts 341°
2026-04-26 13:06 37.37670 26.67411 21110 ft 380 kts 341°
2026-04-26 13:06 37.40155 26.66247 21659 ft 382 kts 341°
2026-04-26 13:06 37.42657 26.65073 22212 ft 385 kts 341°
2026-04-26 13:06 37.45116 26.63711 22735 ft 390 kts 331°
2026-04-26 13:07 37.47363 26.61754 23238 ft 394 kts 327°
2026-04-26 13:07 37.49595 26.59732 23716 ft 397 kts 327°
2026-04-26 13:07 37.51835 26.57688 24137 ft 399 kts 327°
2026-04-26 13:07 37.54086 26.55628 24547 ft 401 kts 327°
2026-04-26 13:08 37.56348 26.53559 24974 ft 402 kts 327°
2026-04-26 13:08 37.58618 26.51484 25381 ft 404 kts 327°
2026-04-26 13:08 37.60900 26.49400 25788 ft 405 kts 327°
2026-04-26 13:08 37.63187 26.47307 26172 ft 407 kts 327°
2026-04-26 13:09 37.65466 26.45217 26542 ft 409 kts 327°
2026-04-26 13:09 37.67772 26.43099 26922 ft 411 kts 327°
2026-04-26 13:09 37.70084 26.40970 27291 ft 413 kts 327°
2026-04-26 13:09 37.72410 26.38832 27654 ft 414 kts 327°
2026-04-26 13:10 37.74747 26.36686 28021 ft 416 kts 327°
2026-04-26 13:10 37.77092 26.34527 28371 ft 418 kts 327°
2026-04-26 13:10 37.79446 26.32354 28716 ft 420 kts 327°
2026-04-26 13:10 37.81807 26.30172 29046 ft 421 kts 327°
2026-04-26 13:11 37.84183 26.27979 29370 ft 423 kts 328°
2026-04-26 13:11 37.86567 26.25783 29668 ft 425 kts 327°
2026-04-26 13:11 37.88960 26.23576 30006 ft 425 kts 327°
2026-04-26 13:11 37.91357 26.21361 30282 ft 427 kts 327°
2026-04-26 13:12 37.93761 26.19140 30529 ft 428 kts 327°
2026-04-26 13:12 37.96144 26.16936 30763 ft 429 kts 327°
2026-04-26 13:12 37.98560 26.14699 30986 ft 431 kts 327°
2026-04-26 13:12 38.00982 26.12454 31210 ft 432 kts 327°
2026-04-26 13:13 38.03407 26.10202 31502 ft 431 kts 327°
2026-04-26 13:13 38.05823 26.07956 31810 ft 430 kts 327°
2026-04-26 13:13 38.08233 26.05712 32120 ft 429 kts 327°
2026-04-26 13:13 38.10639 26.03471 32425 ft 429 kts 327°
2026-04-26 13:14 38.13043 26.01232 32735 ft 428 kts 326°
2026-04-26 13:14 38.15438 25.99000 33056 ft 426 kts 326°
2026-04-26 13:14 38.17826 25.96772 33373 ft 425 kts 326°
2026-04-26 13:14 38.20209 25.94547 33682 ft 424 kts 326°
2026-04-26 13:15 38.22588 25.92326 33971 ft 424 kts 326°
2026-04-26 13:15 38.24962 25.90106 34240 ft 423 kts 326°
2026-04-26 13:15 38.27329 25.87885 34500 ft 423 kts 326°
2026-04-26 13:15 38.28903 25.86407 34676 ft 422 kts 326°
2026-04-26 13:16 38.32064 25.83437 34999 ft 422 kts 326°
2026-04-26 13:16 38.34423 25.81222 35231 ft 421 kts 326°
2026-04-26 13:16 38.36784 25.79006 35456 ft 421 kts 326°
2026-04-26 13:16 38.39140 25.76796 35675 ft 420 kts 326°
2026-04-26 13:17 38.43849 25.72374 35997 ft 419 kts 325°
2026-04-26 13:17 38.46156 25.70189 36017 ft 417 kts 325°
2026-04-26 13:18 38.53051 25.63431 36010 ft 416 kts 324°
2026-04-26 13:19 38.59926 25.56635 36022 ft 416 kts 324°
2026-04-26 13:19 38.64519 25.52122 36022 ft 416 kts 324°
2026-04-26 13:20 38.69105 25.47610 36023 ft 416 kts 323°
2026-04-26 13:20 38.73694 25.43093 36031 ft 416 kts 323°
2026-04-26 13:21 38.78247 25.38593 36036 ft 416 kts 323°
2026-04-26 13:21 38.82830 25.34056 36037 ft 416 kts 323°
2026-04-26 13:22 38.87405 25.29506 36031 ft 416 kts 323°
2026-04-26 13:22 38.91206 25.25733 36035 ft 415 kts 323°
2026-04-26 13:23 38.95780 25.21189 36040 ft 415 kts 323°
2026-04-26 13:23 39.00359 25.16629 36041 ft 415 kts 323°
2026-04-26 13:24 39.04921 25.12077 36040 ft 415 kts 323°
2026-04-26 13:24 39.09449 25.07547 36040 ft 415 kts 323°
2026-04-26 13:25 39.14010 25.02981 36040 ft 415 kts 323°
2026-04-26 13:25 39.18559 24.98411 36035 ft 414 kts 322°
2026-04-26 13:26 39.23100 24.93845 36043 ft 414 kts 322°
2026-04-26 13:26 39.27632 24.89277 36045 ft 413 kts 322°
2026-04-26 13:27 39.32166 24.84712 36045 ft 413 kts 322°
2026-04-26 13:27 39.36687 24.80152 36044 ft 412 kts 322°
2026-04-26 13:28 39.41207 24.75589 36043 ft 412 kts 322°
2026-04-26 13:28 39.45693 24.71050 36042 ft 412 kts 322°
2026-04-26 13:29 39.50209 24.66477 36048 ft 412 kts 321°
2026-04-26 13:29 39.54714 24.61897 36047 ft 411 kts 321°
2026-04-26 13:30 39.59213 24.57320 36043 ft 411 kts 321°
2026-04-26 13:30 39.63704 24.52737 36042 ft 411 kts 321°
2026-04-26 13:31 39.68190 24.48151 36040 ft 411 kts 321°
2026-04-26 13:31 39.72673 24.43555 36037 ft 410 kts 321°
2026-04-26 13:32 39.77156 24.38955 36042 ft 410 kts 321°
2026-04-26 13:32 39.81635 24.34351 36034 ft 410 kts 321°
2026-04-26 13:33 39.86106 24.29750 36035 ft 410 kts 321°
2026-04-26 13:33 39.90573 24.25147 36034 ft 409 kts 321°
2026-04-26 13:34 39.95039 24.20543 36031 ft 409 kts 321°
2026-04-26 13:34 39.99500 24.15935 36030 ft 409 kts 321°
2026-04-26 13:35 40.03953 24.11315 36034 ft 409 kts 320°
2026-04-26 13:35 40.08407 24.06687 36023 ft 409 kts 320°
2026-04-26 13:36 40.12828 24.02095 36019 ft 408 kts 320°
2026-04-26 13:36 40.17274 23.97470 36019 ft 408 kts 320°
2026-04-26 13:37 40.21717 23.92835 36022 ft 408 kts 320°
2026-04-26 13:37 40.26163 23.88181 36017 ft 408 kts 320°
2026-04-26 13:38 40.30597 23.83533 36014 ft 408 kts 320°
2026-04-26 13:38 40.35038 23.78879 36008 ft 408 kts 320°
2026-04-26 13:39 40.39445 23.74257 35998 ft 408 kts 320°
2026-04-26 13:39 40.43876 23.69593 36002 ft 408 kts 320°
2026-04-26 13:40 40.48305 23.64919 36005 ft 408 kts 320°
2026-04-26 13:40 40.52740 23.60239 36003 ft 408 kts 320°
2026-04-26 13:41 40.57161 23.55556 36017 ft 408 kts 319°
2026-04-26 13:41 40.61575 23.50875 36014 ft 407 kts 319°
2026-04-26 13:42 40.65990 23.46197 36007 ft 407 kts 319°
2026-04-26 13:42 40.70403 23.41515 35999 ft 407 kts 319°
2026-04-26 13:43 40.74804 23.36829 35995 ft 407 kts 319°
2026-04-26 13:43 40.79203 23.32130 35996 ft 407 kts 319°
2026-04-26 13:44 40.83569 23.27455 36008 ft 407 kts 319°
2026-04-26 13:44 40.87966 23.22748 36005 ft 406 kts 319°
2026-04-26 13:45 40.92360 23.18047 35999 ft 406 kts 319°
2026-04-26 13:45 40.96750 23.13332 35997 ft 406 kts 319°
2026-04-26 13:46 41.01132 23.08610 35992 ft 406 kts 319°
2026-04-26 13:46 41.05519 23.03873 35992 ft 406 kts 319°
2026-04-26 13:47 41.09849 22.99061 36009 ft 405 kts 313°
2026-04-26 13:47 41.13534 22.93440 36007 ft 404 kts 309°
2026-04-26 13:48 41.17165 22.87750 35989 ft 404 kts 309°
2026-04-26 13:48 41.20766 22.82083 36003 ft 404 kts 309°
2026-04-26 13:49 41.24397 22.76363 35988 ft 404 kts 309°
2026-04-26 13:49 41.28105 22.70752 36003 ft 404 kts 311°
2026-04-26 13:50 41.31925 22.65257 36002 ft 405 kts 311°
2026-04-26 13:50 41.35739 22.59747 36011 ft 405 kts 311°
2026-04-26 13:51 41.39523 22.54205 36018 ft 404 kts 310°
2026-04-26 13:51 41.43298 22.48646 36017 ft 404 kts 310°
2026-04-26 13:52 41.47052 22.43109 36015 ft 405 kts 310°
2026-04-26 13:52 41.50829 22.37529 36003 ft 405 kts 310°
2026-04-26 13:53 41.54611 22.31947 36007 ft 405 kts 310°
2026-04-26 13:53 41.58394 22.26354 36009 ft 406 kts 310°
2026-04-26 13:54 41.62168 22.20752 36012 ft 406 kts 310°
2026-04-26 13:54 41.65939 22.15141 36032 ft 405 kts 310°
2026-04-26 13:55 41.70949 22.07663 36015 ft 405 kts 310°
2026-04-26 13:56 41.77203 21.98307 36025 ft 406 kts 310°
2026-04-26 13:56 41.80965 21.92668 36031 ft 406 kts 310°
2026-04-26 13:57 41.84734 21.87020 36030 ft 406 kts 310°
2026-04-26 13:57 41.88495 21.81370 36036 ft 406 kts 310°
2026-04-26 13:58 41.92248 21.75708 36035 ft 406 kts 310°
2026-04-26 13:58 41.95986 21.70066 36030 ft 407 kts 310°
2026-04-26 13:59 41.99748 21.64368 36028 ft 408 kts 310°
2026-04-26 13:59 42.03513 21.58658 36031 ft 408 kts 310°
2026-04-26 14:00 42.11049 21.47216 36042 ft 408 kts 310°
2026-04-26 14:01 42.14801 21.41485 36040 ft 408 kts 310°
2026-04-26 14:01 42.18534 21.35716 36056 ft 408 kts 309°
2026-04-26 14:02 42.22206 21.29876 36069 ft 408 kts 309°
2026-04-26 14:02 42.25851 21.24050 36068 ft 408 kts 309°
2026-04-26 14:03 42.29521 21.18191 36075 ft 409 kts 309°
2026-04-26 14:03 42.33219 21.12358 36078 ft 409 kts 314°
2026-04-26 14:04 42.37374 21.07080 36076 ft 411 kts 316°
2026-04-26 14:04 42.41601 21.01841 36077 ft 411 kts 316°
2026-04-26 14:05 42.45819 20.96614 36081 ft 412 kts 316°
2026-04-26 14:05 42.50031 20.91350 36083 ft 412 kts 316°
2026-04-26 14:06 42.54237 20.86072 36088 ft 412 kts 316°
2026-04-26 14:06 42.58443 20.80798 36088 ft 412 kts 316°
2026-04-26 14:07 42.62651 20.75504 36081 ft 413 kts 316°
2026-04-26 14:07 42.66862 20.70193 36076 ft 413 kts 316°
2026-04-26 14:08 42.71082 20.64870 36073 ft 413 kts 316°
2026-04-26 14:08 42.75272 20.59576 36090 ft 414 kts 316°
2026-04-26 14:09 42.79486 20.54236 36089 ft 414 kts 316°
2026-04-26 14:09 42.83701 20.48891 36094 ft 414 kts 316°
2026-04-26 14:10 42.87918 20.43526 36093 ft 415 kts 316°
2026-04-26 14:10 42.91419 20.39059 36091 ft 415 kts 316°
2026-04-26 14:11 42.97743 20.30971 36101 ft 415 kts 316°
2026-04-26 14:11 43.01961 20.25578 36106 ft 415 kts 315°
2026-04-26 14:12 43.06178 20.20159 36109 ft 416 kts 315°
2026-04-26 14:12 43.10399 20.14735 36110 ft 416 kts 315°
2026-04-26 14:13 43.16724 20.06591 36099 ft 416 kts 315°
2026-04-26 14:14 43.20942 20.01140 36098 ft 417 kts 315°
2026-04-26 14:14 43.25164 19.95680 36111 ft 417 kts 315°
2026-04-26 14:15 43.29360 19.90239 36106 ft 417 kts 315°
2026-04-26 14:15 43.33581 19.84744 36105 ft 418 kts 315°
2026-04-26 14:16 43.37800 19.79238 36108 ft 418 kts 315°
2026-04-26 14:16 43.42022 19.73736 36110 ft 418 kts 315°
2026-04-26 14:17 43.46238 19.68218 36113 ft 418 kts 315°
2026-04-26 14:17 43.50456 19.62682 36116 ft 419 kts 315°
2026-04-26 14:18 43.54673 19.57141 36116 ft 419 kts 315°
2026-04-26 14:18 43.58893 19.51594 36108 ft 419 kts 315°
2026-04-26 14:19 43.63118 19.46038 36112 ft 420 kts 315°
2026-04-26 14:19 43.67344 19.40472 36114 ft 420 kts 315°
2026-04-26 14:20 43.71561 19.34893 36106 ft 420 kts 315°
2026-04-26 14:20 43.75754 19.29319 36120 ft 420 kts 315°
2026-04-26 14:21 43.79975 19.23706 36117 ft 421 kts 315°
2026-04-26 14:21 43.84201 19.18089 36120 ft 421 kts 315°
2026-04-26 14:22 43.88421 19.12463 36124 ft 421 kts 315°
2026-04-26 14:22 43.92634 19.06834 36117 ft 421 kts 315°
2026-04-26 14:23 43.96848 19.01174 36116 ft 421 kts 315°
2026-04-26 14:23 44.01047 18.95525 36126 ft 421 kts 315°
2026-04-26 14:24 44.05255 18.89857 36132 ft 421 kts 315°
2026-04-26 14:24 44.09458 18.84195 36131 ft 421 kts 315°
2026-04-26 14:25 44.13659 18.78524 36126 ft 421 kts 315°
2026-04-26 14:25 44.17856 18.72834 36124 ft 421 kts 315°
2026-04-26 14:26 44.22055 18.67135 36126 ft 421 kts 315°
2026-04-26 14:26 44.26232 18.61470 36138 ft 421 kts 315°
2026-04-26 14:27 44.30432 18.55749 36130 ft 421 kts 315°
2026-04-26 14:27 44.34615 18.50029 36128 ft 421 kts 315°
2026-04-26 14:28 44.38795 18.44299 36127 ft 420 kts 315°
2026-04-26 14:28 44.42947 18.38610 36130 ft 420 kts 315°
2026-04-26 14:29 44.47123 18.32876 36134 ft 420 kts 315°
2026-04-26 14:29 44.51294 18.27130 36135 ft 420 kts 315°
2026-04-26 14:30 44.55457 18.21375 36131 ft 420 kts 315°
2026-04-26 14:30 44.59630 18.15604 36132 ft 421 kts 315°
2026-04-26 14:31 44.63772 18.09859 36135 ft 421 kts 315°
2026-04-26 14:31 44.67930 18.04082 36130 ft 421 kts 315°
2026-04-26 14:32 44.72093 17.98294 36131 ft 421 kts 315°
2026-04-26 14:32 44.76250 17.92497 36145 ft 421 kts 314°
2026-04-26 14:33 44.80401 17.86698 36142 ft 420 kts 314°
2026-04-26 14:33 44.84544 17.80893 36144 ft 420 kts 314°
2026-04-26 14:34 44.88691 17.75063 36134 ft 420 kts 314°
2026-04-26 14:34 44.92825 17.69248 36133 ft 420 kts 314°
2026-04-26 14:35 44.96960 17.63427 36135 ft 420 kts 314°
2026-04-26 14:35 45.01086 17.57593 36149 ft 420 kts 314°
2026-04-26 14:36 45.05196 17.51783 36145 ft 419 kts 314°
2026-04-26 14:36 45.09322 17.45922 36144 ft 419 kts 314°
2026-04-26 14:37 45.13435 17.40053 36138 ft 419 kts 314°
2026-04-26 14:37 45.17531 17.34248 36146 ft 419 kts 314°
2026-04-26 14:38 45.21666 17.28422 36138 ft 419 kts 314°
2026-04-26 14:38 45.25800 17.22597 36156 ft 419 kts 314°
2026-04-26 14:39 45.29924 17.16764 36148 ft 418 kts 314°
2026-04-26 14:39 45.34031 17.10916 36148 ft 418 kts 314°
2026-04-26 14:40 45.38139 17.05060 36154 ft 418 kts 314°
2026-04-26 14:40 45.42235 16.99202 36149 ft 417 kts 314°
2026-04-26 14:41 45.46332 16.93344 36155 ft 417 kts 314°
2026-04-26 14:41 45.50423 16.87475 36155 ft 417 kts 314°
2026-04-26 14:42 45.54510 16.81607 36153 ft 417 kts 314°
2026-04-26 14:42 45.58593 16.75736 36159 ft 417 kts 314°
2026-04-26 14:43 45.62665 16.69843 36155 ft 417 kts 313°
2026-04-26 14:43 45.66735 16.63950 36148 ft 417 kts 313°
2026-04-26 14:44 45.70786 16.58077 36147 ft 416 kts 313°
2026-04-26 14:44 45.74853 16.52165 36145 ft 416 kts 313°
2026-04-26 14:45 45.78920 16.46245 36162 ft 416 kts 313°
2026-04-26 14:45 45.82983 16.40312 36158 ft 416 kts 313°
2026-04-26 14:46 45.87011 16.34421 36146 ft 416 kts 313°
2026-04-26 14:46 45.91093 16.28534 36146 ft 416 kts 315°
2026-04-26 14:47 45.95393 16.22950 36148 ft 417 kts 317°
2026-04-26 14:47 45.99780 16.17478 36151 ft 417 kts 317°
2026-04-26 14:48 46.04126 16.11950 36163 ft 417 kts 316°
2026-04-26 14:48 46.08435 16.06352 36162 ft 417 kts 316°
2026-04-26 14:49 46.12735 16.00740 36155 ft 417 kts 316°
2026-04-26 14:49 46.17044 15.95123 36153 ft 417 kts 316°
2026-04-26 14:50 46.21356 15.89504 36159 ft 417 kts 316°
2026-04-26 14:50 46.25633 15.83911 36153 ft 417 kts 316°
2026-04-26 14:51 46.29906 15.78235 36170 ft 417 kts 315°
2026-04-26 14:51 46.34126 15.72483 36164 ft 416 kts 315°
2026-04-26 14:52 46.38329 15.66716 36162 ft 416 kts 315°
2026-04-26 14:52 46.42535 15.60956 36180 ft 416 kts 315°
2026-04-26 14:53 46.46742 15.55199 36176 ft 416 kts 315°
2026-04-26 14:53 46.50954 15.49435 36174 ft 416 kts 315°
2026-04-26 14:54 46.55163 15.43660 36188 ft 415 kts 315°
2026-04-26 14:54 46.59317 15.37934 36183 ft 414 kts 315°
2026-04-26 14:55 46.63490 15.32163 36169 ft 413 kts 315°
2026-04-26 14:55 46.67650 15.26404 36161 ft 412 kts 314°
2026-04-26 14:56 46.71103 15.21611 36155 ft 412 kts 314°
2026-04-26 14:56 46.75255 15.15833 36140 ft 412 kts 314°
2026-04-26 14:57 46.79402 15.10063 36137 ft 412 kts 314°
2026-04-26 14:57 46.83550 15.04288 36145 ft 412 kts 314°
2026-04-26 14:58 46.87691 14.98492 36126 ft 413 kts 314°
2026-04-26 14:58 46.91832 14.92678 36135 ft 413 kts 314°
2026-04-26 14:59 46.95972 14.86857 36128 ft 413 kts 314°
2026-04-26 14:59 47.00116 14.81020 36125 ft 414 kts 314°
2026-04-26 15:00 47.04268 14.75164 36123 ft 414 kts 314°
2026-04-26 15:00 47.08418 14.69293 36135 ft 414 kts 314°
2026-04-26 15:01 47.12564 14.63413 36146 ft 415 kts 314°
2026-04-26 15:01 47.16706 14.57521 36141 ft 415 kts 314°
2026-04-26 15:02 47.20824 14.51654 36140 ft 415 kts 314°
2026-04-26 15:02 47.24975 14.45732 36147 ft 415 kts 314°
2026-04-26 15:03 47.29125 14.39795 36152 ft 415 kts 313°
2026-04-26 15:03 47.33271 14.33848 36182 ft 415 kts 313°
2026-04-26 15:04 47.37405 14.27888 36190 ft 415 kts 313°
2026-04-26 15:04 47.41536 14.21925 36194 ft 415 kts 313°
2026-04-26 15:05 47.45645 14.15998 36201 ft 415 kts 313°
2026-04-26 15:05 47.49782 14.10025 36202 ft 415 kts 313°
2026-04-26 15:06 47.53906 14.04052 36199 ft 415 kts 313°
2026-04-26 15:06 47.58025 13.98055 36199 ft 415 kts 313°
2026-04-26 15:07 47.64188 13.89047 36206 ft 415 kts 313°
2026-04-26 15:07 47.68303 13.83035 36208 ft 415 kts 313°
2026-04-26 15:08 47.72406 13.77017 36209 ft 415 kts 313°
2026-04-26 15:08 47.76508 13.70987 36268 ft 417 kts 313°
2026-04-26 15:09 47.78575 13.67939 36453 ft 418 kts 313°
2026-04-26 15:09 47.80645 13.64882 36684 ft 419 kts 313°
2026-04-26 15:09 47.82687 13.61864 36916 ft 419 kts 313°
2026-04-26 15:09 47.84754 13.58807 37168 ft 419 kts 313°
2026-04-26 15:10 47.86822 13.55746 37403 ft 418 kts 313°
2026-04-26 15:10 47.88190 13.53719 37549 ft 418 kts 313°
2026-04-26 15:10 47.90952 13.49623 37821 ft 419 kts 313°
2026-04-26 15:10 47.93012 13.46559 38035 ft 418 kts 313°
2026-04-26 15:11 47.95074 13.43494 38192 ft 419 kts 313°
2026-04-26 15:11 47.97138 13.40427 38201 ft 419 kts 313°
2026-04-26 15:11 48.01264 13.34295 38199 ft 418 kts 313°
2026-04-26 15:12 48.05378 13.28146 38198 ft 418 kts 313°
2026-04-26 15:12 48.09491 13.21981 38201 ft 419 kts 313°
2026-04-26 15:13 48.13601 13.15802 38205 ft 419 kts 312°
2026-04-26 15:13 48.17706 13.09610 38210 ft 419 kts 312°
2026-04-26 15:14 48.21810 13.03410 38213 ft 419 kts 312°
2026-04-26 15:14 48.26026 12.97353 38216 ft 420 kts 316°
2026-04-26 15:15 48.30470 12.91643 38219 ft 421 kts 317°
2026-04-26 15:15 48.34943 12.85956 38221 ft 420 kts 317°
2026-04-26 15:16 48.39333 12.80214 38233 ft 420 kts 316°
2026-04-26 15:16 48.43714 12.74391 38230 ft 420 kts 316°
2026-04-26 15:17 48.47348 12.69552 38230 ft 420 kts 316°
2026-04-26 15:17 48.52473 12.62754 38229 ft 419 kts 316°
2026-04-26 15:18 48.56849 12.56926 38228 ft 419 kts 316°
2026-04-26 15:18 48.61218 12.51093 38237 ft 419 kts 316°
2026-04-26 15:19 48.65585 12.45251 38253 ft 419 kts 316°
2026-04-26 15:19 48.69948 12.39403 38250 ft 419 kts 316°
2026-04-26 15:20 48.74302 12.33550 38244 ft 418 kts 316°
2026-04-26 15:20 48.78650 12.27687 38245 ft 418 kts 316°
2026-04-26 15:21 48.82971 12.21849 38242 ft 418 kts 316°
2026-04-26 15:21 48.87316 12.15982 38242 ft 418 kts 316°
2026-04-26 15:22 48.91658 12.10100 38259 ft 418 kts 316°
2026-04-26 15:22 48.95989 12.04209 38256 ft 418 kts 316°
2026-04-26 15:23 49.00312 11.98308 38256 ft 417 kts 316°
2026-04-26 15:23 49.04636 11.92397 38256 ft 417 kts 316°
2026-04-26 15:24 49.08955 11.86472 38257 ft 417 kts 315°
2026-04-26 15:24 49.13261 11.80544 38258 ft 417 kts 316°
2026-04-26 15:25 49.16848 11.75611 38271 ft 417 kts 315°
2026-04-26 15:25 49.21875 11.68670 38263 ft 416 kts 315°
2026-04-26 15:26 49.26174 11.62717 38261 ft 416 kts 315°
2026-04-26 15:26 49.30467 11.56767 38255 ft 416 kts 316°
2026-04-26 15:27 49.34765 11.50810 38258 ft 416 kts 315°
2026-04-26 15:27 49.39051 11.44828 38261 ft 417 kts 315°
2026-04-26 15:28 49.43331 11.38835 38271 ft 417 kts 315°
2026-04-26 15:28 49.47618 11.32826 38264 ft 417 kts 315°
2026-04-26 15:29 49.51896 11.26812 38268 ft 416 kts 315°
2026-04-26 15:29 49.55774 11.20263 38262 ft 413 kts 301°
2026-04-26 15:30 49.58619 11.12656 38261 ft 412 kts 298°
2026-04-26 15:30 49.61451 11.04967 38261 ft 413 kts 298°
2026-04-26 15:31 49.65708 10.93421 38267 ft 413 kts 298°
2026-04-26 15:32 49.69021 10.84383 38280 ft 413 kts 298°
2026-04-26 15:32 49.72777 10.74089 38275 ft 413 kts 298°
2026-04-26 15:33 49.75593 10.66345 38271 ft 413 kts 298°
2026-04-26 15:33 49.78399 10.58592 38271 ft 413 kts 298°
2026-04-26 15:34 49.81183 10.50878 38279 ft 413 kts 298°
2026-04-26 15:34 49.83979 10.43118 38276 ft 413 kts 298°
2026-04-26 15:35 49.86770 10.35345 38279 ft 413 kts 298°
2026-04-26 15:35 49.89558 10.27558 38281 ft 413 kts 298°
2026-04-26 15:36 49.92355 10.19738 38281 ft 413 kts 298°
2026-04-26 15:36 49.95140 10.11929 38284 ft 413 kts 298°
2026-04-26 15:37 49.97905 10.04113 38267 ft 413 kts 298°
2026-04-26 15:37 50.00653 9.96322 38287 ft 413 kts 298°
2026-04-26 15:38 50.03419 9.88490 38281 ft 413 kts 298°
2026-04-26 15:38 50.05713 9.81972 38278 ft 413 kts 298°
2026-04-26 15:39 50.08914 9.74582 37568 ft 412 kts 308°
2026-04-26 15:39 50.10739 9.71137 36813 ft 413 kts 308°
2026-04-26 15:39 50.11976 9.68805 36301 ft 414 kts 308°
2026-04-26 15:40 50.14407 9.64208 35300 ft 416 kts 309°
2026-04-26 15:40 50.16238 9.60722 34714 ft 413 kts 308°
2026-04-26 15:40 50.18045 9.57264 34190 ft 410 kts 308°
2026-04-26 15:40 50.19836 9.53831 33593 ft 406 kts 308°
2026-04-26 15:41 50.21611 9.50429 33012 ft 403 kts 308°
2026-04-26 15:41 50.23377 9.47041 32449 ft 400 kts 308°
2026-04-26 15:41 50.25123 9.43678 31907 ft 397 kts 308°
2026-04-26 15:41 50.26854 9.40342 31379 ft 394 kts 308°
2026-04-26 15:42 50.28576 9.37019 30830 ft 393 kts 308°
2026-04-26 15:42 50.30287 9.33708 30296 ft 391 kts 308°
2026-04-26 15:42 50.31993 9.30412 29709 ft 388 kts 308°
2026-04-26 15:42 50.33687 9.27138 29164 ft 385 kts 308°
2026-04-26 15:43 50.35363 9.23891 28651 ft 381 kts 309°
2026-04-26 15:43 50.37015 9.20683 28229 ft 375 kts 309°
2026-04-26 15:43 50.40259 9.14365 27246 ft 369 kts 308°
2026-04-26 15:44 50.41865 9.11238 26751 ft 367 kts 308°
2026-04-26 15:44 50.45048 9.05050 25802 ft 362 kts 308°
2026-04-26 15:44 50.46606 9.02004 25339 ft 360 kts 308°
2026-04-26 15:45 50.49716 8.95892 24409 ft 356 kts 308°
2026-04-26 15:45 50.51259 8.92861 23949 ft 354 kts 308°
2026-04-26 15:46 50.53647 8.86194 22928 ft 349 kts 290°
2026-04-26 15:46 50.54493 8.82633 22438 ft 346 kts 290°
2026-04-26 15:46 50.55339 8.79110 22006 ft 343 kts 290°
2026-04-26 15:46 50.55897 8.76795 21707 ft 341 kts 290°
2026-04-26 15:47 50.57015 8.72157 21107 ft 338 kts 290°
2026-04-26 15:47 50.58666 8.65287 20238 ft 333 kts 290°
2026-04-26 15:47 50.59480 8.61879 19814 ft 331 kts 290°
2026-04-26 15:48 50.60286 8.58495 19396 ft 329 kts 290°
2026-04-26 15:48 50.61084 8.55130 18991 ft 327 kts 290°
2026-04-26 15:48 50.61878 8.51778 18582 ft 326 kts 290°
2026-04-26 15:48 50.62671 8.48437 18135 ft 324 kts 290°
2026-04-26 15:49 50.63457 8.45124 17700 ft 322 kts 290°
2026-04-26 15:49 50.64236 8.41834 17269 ft 320 kts 290°
2026-04-26 15:49 50.65013 8.38550 16847 ft 318 kts 290°
2026-04-26 15:49 50.65771 8.35337 16445 ft 316 kts 290°
2026-04-26 15:50 50.66542 8.32052 16038 ft 315 kts 290°
2026-04-26 15:50 50.67298 8.28829 15653 ft 313 kts 291°
2026-04-26 15:50 50.68053 8.25615 15265 ft 311 kts 291°
2026-04-26 15:50 50.68796 8.22441 14634 ft 307 kts 291°
2026-04-26 15:51 50.69532 8.19292 13924 ft 305 kts 291°
2026-04-26 15:51 50.70261 8.16166 13269 ft 303 kts 291°
2026-04-26 15:51 50.70986 8.13053 12702 ft 300 kts 291°
2026-04-26 15:51 50.71694 8.10013 12146 ft 298 kts 291°
2026-04-26 15:52 50.72406 8.06952 11642 ft 297 kts 291°
2026-04-26 15:52 50.73115 8.03905 11263 ft 294 kts 291°
2026-04-26 15:52 50.73815 8.00886 10973 ft 289 kts 291°
2026-04-26 15:52 50.74275 7.98893 10865 ft 283 kts 291°
2026-04-26 15:53 50.75061 7.95030 10423 ft 277 kts 283°
2026-04-26 15:53 50.75137 7.92008 9961 ft 277 kts 266°
2026-04-26 15:53 50.74873 7.88982 9424 ft 277 kts 264°
2026-04-26 15:53 50.74579 7.85984 8898 ft 275 kts 264°
2026-04-26 15:54 50.74287 7.83001 8389 ft 274 kts 263°
2026-04-26 15:54 50.74003 7.80044 7875 ft 272 kts 263°
2026-04-26 15:54 50.73725 7.77088 7482 ft 271 kts 263°
2026-04-26 15:54 50.73454 7.74154 7255 ft 269 kts 263°
2026-04-26 15:55 50.73183 7.71220 7255 ft 271 kts 263°
2026-04-26 15:55 50.72912 7.68273 7252 ft 271 kts 263°
2026-04-26 15:55 50.72644 7.65328 7253 ft 272 kts 263°
2026-04-26 15:55 50.72375 7.62385 7129 ft 269 kts 263°
2026-04-26 15:56 50.72110 7.59465 6716 ft 268 kts 263°
2026-04-26 15:56 50.71850 7.56552 6299 ft 268 kts 263°
2026-04-26 15:56 50.71598 7.53650 5863 ft 267 kts 263°
2026-04-26 15:56 50.71352 7.50752 5414 ft 266 kts 264°
2026-04-26 15:57 50.71110 7.47868 4993 ft 264 kts 263°
2026-04-26 15:57 50.70872 7.45007 4589 ft 262 kts 263°
2026-04-26 15:57 50.70638 7.42188 4292 ft 251 kts 264°
2026-04-26 15:57 50.70547 7.40426 4184 ft 236 kts 276°
2026-04-26 15:58 50.71195 7.37269 3617 ft 222 kts 310°
2026-04-26 15:58 50.72252 7.35660 3484 ft 203 kts 319°
2026-04-26 15:58 50.73270 7.34214 3354 ft 192 kts 319°
2026-04-26 15:58 50.74242 7.32822 3256 ft 185 kts 320°
2026-04-26 15:59 50.75182 7.31473 3061 ft 181 kts 319°
2026-04-26 15:59 50.76110 7.30139 2834 ft 180 kts 319°
2026-04-26 15:59 50.77039 7.28803 2597 ft 181 kts 319°
2026-04-26 15:59 50.77975 7.27456 2354 ft 181 kts 319°
2026-04-26 16:00 50.78885 7.26146 2111 ft 174 kts 319°
2026-04-26 16:00 50.79773 7.24865 1878 ft 172 kts 319°
2026-04-26 16:00 50.80651 7.23600 1645 ft 171 kts 319°
2026-04-26 16:00 50.81516 7.22353 1405 ft 167 kts 319°
2026-04-26 16:01 50.82340 7.21158 1324 ft 157 kts 318°
2026-04-26 16:01 50.83120 7.19994 1064 ft 149 kts 316°
2026-04-26 16:01 50.83868 7.18920 812 ft 139 kts 317°
2026-04-26 16:01 50.84572 7.17933 592 ft 131 kts 317°
2026-04-26 16:02 50.85237 7.16976 420 ft 129 kts 317°
2026-04-26 16:02 50.85887 7.16032 310 ft 122 kts 316°
2026-04-26 16:02 50.86434 7.15244 283 ft 92 kts 317°
2026-04-26 16:02 50.86731 7.14812 269 ft 80 kts 317°
2026-04-26 16:03 50.87218 7.14109 246 ft 63 kts 317°
2026-04-26 16:03 50.87510 7.13686 240 ft 51 kts 317°
2026-04-26 16:03 50.87752 7.13336 239 ft 39 kts 317°
2026-04-26 16:03 50.87850 7.13153 239 ft 11 kts 263°
2026-04-26 16:04 50.87833 7.13039 238 ft 10 kts 256°
2026-04-26 16:04 50.87819 7.12952 239 ft 3 kts 256°
2026-04-26 16:04 50.87813 7.12914 237 ft 1 kts 256°
2026-04-26 16:05 50.87811 7.12903 236 ft 3 kts 256°
2026-04-26 16:05 50.87801 7.12842 234 ft 10 kts 256°
2026-04-26 16:05 50.87783 7.12727 232 ft 10 kts 256°
2026-04-26 16:05 50.87816 7.12631 232 ft 12 kts 328°
2026-04-26 16:06 50.87899 7.12618 232 ft 11 kts 15°
2026-04-26 16:06 50.87972 7.12611 234 ft 11 kts 338°
2026-04-26 16:06 50.88016 7.12529 232 ft 11 kts 298°
2026-04-26 16:06 50.88037 7.12446 233 ft 8 kts 267°
2026-04-26 16:07 50.88009 7.12401 232 ft 5 kts 218°
2026-04-26 16:07 50.87991 7.12380 232 ft 3 kts 215°
2026-04-26 16:07 50.87986 7.12375 234 ft 0 kts 215°